Location: Four Corners
(38.2757°N, 122.4608°W)
Time: 20:53:08
(UTC+00:00)

Aureole 1 Rocket - Pass Details

Date: 08 December 2019
Orbit: 378 x 1382 km, 73.9° (Epoch: 21 January)

Event Time Altitude Azimuth Distance (km) Brightness Sun altitude
Rises 01:47:46 0° 175° (S) 2,321 6.2 -11.3°
Reaches altitude 10° 01:50:00 10° 162° (SSE) 1,413 4.9 -11.7°
Maximum altitude 01:52:34 26° 103° (ESE) 799 3.2 -12.2°
Enters shadow 01:53:23 22° 75° (ENE) 882 3.2 -12.3°
